Date String (YYYY-MM-DD hh:mm:ss) UTC,Instrument flags,absolute air pressure of the measurement (hPa),sample flow rate (lpm),inlet stack bypass flow (lpm),air temperature of the measurement (°C),ambient temperature measured by the external sensor (°C),aerosol sample conditioner tube jacket temperature (°C),OPC LED temperature (°C),internal box temperature (°C),relative humidity of the measurement (%),span deviation,mass concentration of particles derived from Lorenz-Mie calculation of OPC scattering (μg/m³),mass concentration of particles derived from Lorenz-Mie calculation of OPC scattering (μg/m³),mass concentration of particles derived from Lorenz-Mie calculation of OPC scattering (μg/m³)
DateTimeUTC,F1_M11,P_M11,Q1_M11,Q2_M11,T1_M11,T2_M11,T3_M11,T4_M11,T5_M11,U1_M11,ZSPAN_M11,X0_M11,X2_M11,X1_M11
2023-11-14 06:00:00,SystemResetWarning,0831.3,5.00,000.00,027.8,026.6,000.0,036.2,029.1,7.8,0000.0,0014.00,0003.99,0003.18
2023-11-14 06:01:00,SystemResetWarning,0831.4,5.00,000.00,027.8,026.5,000.0,036.2,029.1,7.9,0000.0,0013.58,0003.96,0003.16
2023-11-14 06:02:00,SystemResetWarning,0831.4,5.00,000.00,027.7,026.6,000.0,036.2,029.1,8.0,0000.0,0012.74,0003.94,0003.14
2023-11-14 06:03:00,SystemResetWarning,0831.3,4.99,000.00,027.7,026.6,000.0,036.2,029.1,8.0,0000.0,0011.77,0003.92,0003.13
2023-11-14 06:04:00,SystemResetWarning,0831.3,5.00,000.00,027.7,026.6,000.0,036.2,029.1,8.1,0000.0,0010.70,0003.94,0003.16
2023-11-14 06:05:00,SystemResetWarning,0831.3,5.00,000.00,027.7,026.6,000.0,036.2,029.1,8.0,0000.0,0010.71,0003.97,0003.18
2023-11-14 06:06:00,SystemResetWarning,0831.3,5.00,000.00,027.7,026.5,000.0,036.2,029.1,8.0,0000.0,0010.94,0003.99,0003.19
2023-11-14 06:07:00,SystemResetWarning,0831.3,5.00,000.00,027.7,026.5,000.0,036.2,029.1,8.0,0000.0,0011.34,0003.97,0003.20
2023-11-14 06:08:00,SystemResetWarning,0831.3,5.00,000.00,027.7,026.5,000.0,036.2,029.0,8.0,0000.0,0011.92,0004.06,0003.24
2023-11-14 06:09:00,SystemResetWarning,0831.3,5.00,000.00,027.7,026.5,000.0,036.1,029.0,8.0,0000.0,0013.93,0004.21,0003.35
2023-11-14 06:10:00,SystemResetWarning,0831.2,5.00,000.00,027.7,026.5,000.0,036.1,029.1,8.0,0000.0,0014.47,0004.43,0003.50
2023-11-14 06:11:00,SystemResetWarning,0831.3,5.00,000.00,027.7,026.5,000.0,036.1,029.0,7.9,0000.0,0015.93,0004.64,0003.59
2023-11-14 06:12:00,SystemResetWarning,0831.3,5.00,000.00,027.7,026.5,000.0,036.1,029.0,7.9,0000.0,0016.65,0004.78,0003.66
2023-11-14 06:13:00,SystemResetWarning,0831.2,5.00,000.00,027.7,026.5,000.0,036.1,029.1,7.8,0000.0,0017.42,0004.94,0003.78
2023-11-14 06:14:00,SystemResetWarning,0831.1,5.00,000.00,027.7,026.5,000.0,036.1,029.1,7.7,0000.0,0019.25,0005.12,0003.90
2023-11-14 06:15:00,SystemResetWarning,0831.2,5.00,000.00,027.7,026.6,000.0,036.1,029.1,7.5,0000.0,0020.10,0005.19,0003.97
2023-11-14 06:16:00,SystemResetWarning,0831.2,5.00,000.00,027.7,026.6,000.0,036.1,029.0,7.5,0000.0,0020.95,0005.23,0004.00
2023-11-14 06:17:00,SystemResetWarning,0831.3,5.00,000.00,027.7,026.6,000.0,036.1,029.0,7.6,0000.0,0020.81,0005.23,0004.03
2023-11-14 06:18:00,SystemResetWarning,0831.3,4.99,000.00,027.7,026.6,000.0,036.1,029.0,7.5,0000.0,0020.72,0005.29,0004.05
2023-11-14 06:19:00,SystemResetWarning,0831.2,5.00,000.00,027.7,026.6,000.0,036.1,029.0,7.5,0000.0,0020.39,0005.20,0004.00
2023-11-14 06:20:00,SystemResetWarning,0831.2,5.00,000.00,027.7,026.6,000.0,036.1,029.0,7.4,0000.0,0019.36,0005.04,0003.88
2023-11-14 06:21:00,SystemResetWarning,0831.2,5.00,000.00,027.7,026.6,000.0,036.1,029.0,7.5,0000.0,0018.11,0004.77,0003.70
2023-11-14 06:22:00,SystemResetWarning,0831.2,5.00,000.00,027.7,026.6,000.0,036.1,029.0,7.4,0000.0,0017.01,0004.53,0003.58
2023-11-14 06:23:00,SystemResetWarning,0831.3,5.00,000.00,027.7,026.6,000.0,036.1,029.0,7.4,0000.0,0016.55,0004.40,0003.50
2023-11-14 06:24:00,SystemResetWarning,0831.2,5.00,000.00,027.7,026.6,000.0,036.1,029.0,7.5,0000.0,0015.95,0004.19,0003.36
2023-11-14 06:25:00,SystemResetWarning,0831.2,4.99,000.00,027.7,026.6,000.0,036.1,029.1,7.5,0000.0,0014.32,0003.99,0003.22
2023-11-14 06:26:00,SystemResetWarning,0831.3,4.99,000.00,027.7,026.6,000.0,036.1,029.1,7.5,0000.0,0014.28,0003.86,0003.11
2023-11-14 06:27:00,SystemResetWarning,0831.3,5.00,000.00,027.7,026.6,000.0,036.1,029.1,7.5,0000.0,0013.82,0003.76,0002.99
2023-11-14 06:28:00,SystemResetWarning,0831.2,5.00,000.00,027.6,026.5,000.0,036.1,029.1,7.5,0000.0,0013.96,0003.68,0002.87
2023-11-14 06:29:00,SystemResetWarning,0831.2,5.01,000.00,027.7,026.5,000.0,036.1,029.0,7.5,0000.0,0013.08,0003.58,0002.75
2023-11-14 06:30:00,SystemResetWarning,0831.2,5.00,000.00,027.7,026.6,000.0,036.1,029.1,7.5,0000.0,0013.20,0003.48,0002.63
2023-11-14 06:31:00,SystemResetWarning,0831.2,5.00,000.00,027.6,026.6,000.0,036.1,029.1,7.5,0000.0,0012.51,0003.43,0002.58
2023-11-14 06:32:00,SystemResetWarning,0831.3,5.00,000.00,027.6,026.6,000.0,036.1,029.1,7.6,0000.0,0013.35,0003.44,0002.59
2023-11-14 06:33:00,SystemResetWarning,0831.3,5.00,000.00,027.6,026.6,000.0,036.1,029.0,7.8,0000.0,0013.52,0003.45,0002.59
2023-11-14 06:34:00,SystemResetWarning,0831.2,5.00,000.00,027.6,026.5,000.0,036.0,029.0,7.6,0000.0,0013.74,0003.39,0002.55
2023-11-14 06:35:00,SystemResetWarning,0831.1,5.00,000.00,027.6,026.6,000.0,036.0,029.0,7.5,0000.0,0013.63,0003.39,0002.55
2023-11-14 06:36:00,SystemResetWarning,0831.1,5.00,000.00,027.6,026.6,000.0,036.0,029.0,7.5,0000.0,0014.64,0003.42,0002.58
2023-11-14 06:37:00,SystemResetWarning,0831.3,5.00,000.00,027.6,026.6,000.0,036.0,029.0,7.6,0000.0,0014.31,0003.45,0002.59
2023-11-14 06:38:00,SystemResetWarning,0831.2,5.00,000.00,027.6,026.6,000.0,036.0,029.0,7.7,0000.0,0014.67,0003.47,0002.61
2023-11-14 06:39:00,SystemResetWarning,0831.2,5.00,000.00,027.6,026.6,000.0,036.0,029.0,7.6,0000.0,0014.28,0003.43,0002.61
2023-11-14 06:40:00,SystemResetWarning,0831.1,5.00,000.00,027.6,026.5,000.0,036.0,028.9,7.6,0000.0,0014.36,0003.41,0002.62
2023-11-14 06:41:00,SystemResetWarning,0831.1,5.00,000.00,027.6,026.6,000.0,036.0,028.9,7.6,0000.0,0013.41,0003.38,0002.62
2023-11-14 06:42:00,SystemResetWarning,0831.1,5.00,000.00,027.6,026.6,000.0,036.0,029.0,7.5,0000.0,0012.99,0003.39,0002.62
2023-11-14 06:43:00,SystemResetWarning,0831.1,5.00,000.00,027.6,026.6,000.0,036.0,029.0,7.5,0000.0,0012.88,0003.37,0002.62
2023-11-14 06:44:00,SystemResetWarning,0831.1,5.00,000.00,027.6,026.6,000.0,036.0,029.0,7.7,0000.0,0013.28,0003.38,0002.62
2023-11-14 06:45:00,SystemResetWarning,0831.1,5.01,000.00,027.6,026.6,000.0,036.0,029.0,7.6,0000.0,0012.80,0003.40,0002.63
2023-11-14 06:46:00,SystemResetWarning,0831.1,5.00,000.00,027.6,026.6,000.0,036.0,029.0,7.5,0000.0,0013.03,0003.42,0002.64
2023-11-14 06:47:00,SystemResetWarning,0831.1,5.00,000.00,027.6,026.6,000.0,036.0,029.0,7.5,0000.0,0012.18,0003.40,0002.63
2023-11-14 06:48:00,SystemResetWarning,0831.1,5.00,000.00,027.6,026.6,000.0,036.0,029.0,7.5,0000.0,0012.33,0003.38,0002.62
2023-11-14 06:49:00,SystemResetWarning,0831.0,5.00,000.00,027.6,026.5,000.0,036.0,029.0,7.5,0000.0,0011.46,0003.35,0002.62
2023-11-14 06:50:00,SystemResetWarning,0831.0,4.99,000.00,027.6,026.5,000.0,036.0,029.0,7.5,0000.0,0010.85,0003.39,0002.63
2023-11-14 06:51:00,SystemResetWarning,0831.0,5.00,000.00,027.6,026.5,000.0,036.0,029.0,7.5,0000.0,0010.83,0003.42,0002.65
2023-11-14 06:52:00,SystemResetWarning,0831.0,5.00,000.00,027.6,026.4,000.0,036.0,028.9,7.4,0000.0,0011.38,0003.45,0002.65
2023-11-14 06:53:00,SystemResetWarning,0830.9,5.00,000.00,027.6,026.4,000.0,036.0,028.9,7.3,0000.0,0011.84,0003.46,0002.66
2023-11-14 06:54:00,SystemResetWarning,0830.9,5.00,000.00,027.5,026.4,000.0,036.0,028.9,7.2,0000.0,0010.74,0003.46,0002.66
2023-11-14 06:55:00,SystemResetWarning,0830.9,5.00,000.00,027.5,026.4,000.0,036.0,028.9,7.3,0000.0,0010.12,0003.44,0002.66
2023-11-14 06:56:00,SystemResetWarning,0830.9,5.00,000.00,027.5,026.4,000.0,036.0,028.9,7.3,0000.0,0010.49,0003.45,0002.67
2023-11-14 06:57:00,SystemResetWarning,0830.9,5.00,000.00,027.5,026.3,000.0,035.9,028.9,7.3,0000.0,0010.09,0003.45,0002.65
2023-11-14 06:58:00,SystemResetWarning,0830.9,5.00,000.00,027.5,026.3,000.0,035.9,028.9,7.4,0000.0,0009.97,0003.44,0002.65
2023-11-14 06:59:00,SystemResetWarning,0830.9,5.00,000.00,027.5,026.3,000.0,035.9,028.9,7.4,0000.0,0010.32,0003.47,0002.65
